Regional Weather Roundup
Issued by NWS

Home | Current Version | Previous Version | Text Only | Print | Product List | Glossary On
Versions: 1 2 3 4 5 6 7 8 9 10 11 12 13 14 15 16 17 18 19 20 21 22 23 24 25 26 27 28 29 30 31 32 33 34 35 36 37 38 39 40 41 42 43 44 45 46 47 48 49 50
000
ASUS43 KLOT 201710
RWRIL

ILLINOIS REGIONAL WEATHER ROUNDUP
NATIONAL WEATHER SERVICE CHICAGO/ROMEOVILLE IL
1200 PM CDT WED AUG 20 2014

NOTE: "FAIR" INDICATES FEW OR NO CLOUDS BELOW 12,000 FEET WITH NO
SIGNIFICANT WEATHER AND/OR OBSTRUCTIONS TO VISIBILITY.

* THESE STATIONS ARE NOT UNDER NWS QUALITY CONTROL. THEY ALSO MAY NOT
  REPORT WEATHER SUCH AS PRECIPITATION OR FOG.

ILZ001-002-007-009-015-016-024-201800-
NORTHWEST ILLINOIS

CITY           SKY/WX    TMP DP  RH WIND       PRES   REMARKS
MOLINE         CLOUDY    77  68  73 W5        29.94R
STERLING*      CLOUDY    81  68  65 W8        29.93R HX  83
SAVANNA*       CLOUDY    82  64  55 SW8       29.92R HX  83
$$

ILZ003-004-008-010-011-017-018-201800-
NORTH CENTRAL ILLINOIS

CITY           SKY/WX    TMP DP  RH WIND       PRES   REMARKS
ROCKFORD       PTSUNNY   83  67  58 W8        29.92R HX  85
FREEPORT*      PTSUNNY   80  70  70 W9        29.94R HX  83
ROCHELLE*      PTSUNNY   80  66  63 W12       29.92F HX  82
DE KALB*       PTSUNNY   79  66  66 SW15      29.93S HX  81
PERU*          CLOUDY    81  66  60 S5        29.92F HX  83
$$

ILZ005-006-012>014-019>023-201800-
NORTHEAST ILLINOIS

CITY           SKY/WX    TMP DP  RH WIND       PRES   REMARKS
CHICAGO-OHARE  PTSUNNY   82  64  54 SW12      29.91R HX  83
CHICAGO-MIDWAY PTSUNNY   82  66  58 W15G24    29.92R HX  84
AURORA         PTSUNNY   82  67  60 SW14      29.93R HX  84
LANSING*       PTSUNNY   81  66  60 SW17      29.94R HX  83
JOLIET*        PTSUNNY   80  64  57 SW10      29.94F HX  82
WAUKEGAN       SUNNY     82  64  54 VRB5      29.89R HX  83
DUPAGE AIRPORT MOSUNNY   82  67  60 SW13      29.92R HX  84
KANKAKEE*      CLOUDY    82  69  63 SW12      29.95F HX  85
WHEELING       PTSUNNY   83  65  54 W9        29.92R HX  85
MORRIS*        CLOUDY    82  68  62 SW13      29.93F HX  85
ROMEOVILLE*    PTSUNNY   80  66  63 SW13      29.93S HX  82
NORTHERLY ISL    N/A     81  63  54 W8          N/A  HX  82
$$

LMZ740>746-201800-
SOUTHERN LAKE MICHIGAN

STATION/POSITION SKY/WX   TEMP    WIND        PRES    VSBY  WAVE
                          AIR SEA DIR/SP/G                  HT/PER
                          (F)     (DEG/KT/KT) (MB)    (MI)  (FT/S)
SOUTHERN BUOY              69 69  240/  2/  4 1012.4R         0
WAUKEGAN HARBOR            79     260/  6/ 13   N/A
HARRISON CRIB              78     220/  9/ 13   N/A
BURNHAM HARBOR             81     250/  9/ 12   N/A
CALUMET HARBOR             81     210/ 12/ 16 1011.8R
BURNS HARBOR               75      CALM  /  2   N/A
MICHIGAN CITY              72     230/  7/  8   N/A
MICHIGAN CITY 6N           72 72  280/  2/  2   N/A           1
ST. JOSEPH                 71 71  220/  8/ 10   N/A           1
$$

ILZ025>027-034>036-040-047-049-050-058-095>099-201800-
WEST-CENTRAL ILLINOIS

CITY           SKY/WX    TMP DP  RH WIND       PRES   REMARKS
QUINCY         CLOUDY    76  73  91 SE10      29.96F
GALESBURG*     CLOUDY    72  69  90 SW5       29.96R
MACOMB*        RAIN      68  68 100 CALM      29.99S
JACKSONVILLE*  TSTM      73  70  90 E6        29.98R
PITTSFIELD*    CLOUDY    75  71  86 N9        30.01R
$$

ILZ028>032-037-038-041>044-048-051>054-059>061-201800-
CENTRAL ILLINOIS

CITY           SKY/WX    TMP DP  RH WIND       PRES   REMARKS
PONTIAC        CLOUDY    81  70  69 SW8       29.94F HX  84
DECATUR        LGT RAIN  71  69  93 E5        29.96F
PEORIA         CLOUDY    74  70  87 SW8       29.95R
LACON*         CLOUDY    78  68  70 SW8       29.92R HX  80
LINCOLN*       LGT RAIN  71  69  94 S5        29.92F
SPRINGFIELD    CLOUDY    70  68  93 SW8       29.97R
TAYLORVILLE    TSTM      66  64  94 S12       29.99F
$$

ILZ033-039-045-046-055>057-062-063-201800-
EAST-CENTRAL ILLINOIS

CITY           SKY/WX    TMP DP  RH WIND       PRES   REMARKS
CHAMPAIGN      TSTM      72  69  90 SW7       30.02R FOG
DANVILLE*      CLOUDY    77  70  80 W8        29.96R
RANTOUL*       CLOUDY    75  71  86 SW12G21   30.01R
MATTOON        LGT RAIN  72  67  84 W7        30.01R
PARIS*         TSTM      73  71  94 W9G18     29.99S
$$

ILZ079-100>102-201800-
SOUTHWEST ILLINOIS

CITY           SKY/WX    TMP DP  RH WIND       PRES   REMARKS
ALTON          CLOUDY    81  77  89 S9        29.98R HX  88
BELLEVILLE     MOSUNNY   83  76  79 E5        29.98R HX  91
CAHOKIA*       CLOUDY    86  74  67 VRB3      29.98R HX  94
SPARTA*        CLOUDY    83  75  78 CALM      30.00R HX  90
$$

ILZ064>066-069>071-074>076-080>082-084>086-088>090-092>094-201800-
SOUTH-CENTRAL ILLINOIS

CITY           SKY/WX    TMP DP  RH WIND       PRES   REMARKS
CARBONDALE     CLOUDY    84  73  69 W5        29.98R HX  90
CAIRO*         PTSUNNY   90  76  64 W6        29.99R HX 101
MARION         PTSUNNY   84  75  74 S7        29.99R HX  92
MT. VERNON     CLOUDY    79  72  78 SW5       30.00R HX  82
CENTRALIA*     CLOUDY    82  72  72 CALM      30.00R HX  86
SALEM*         CLOUDY    75  71  85 NE6       30.02R
$$

ILZ067-068-072-073-078-083-087-091-201800-
SOUTHEAST ILLINOIS

CITY           SKY/WX    TMP DP  RH WIND       PRES   REMARKS
LAWRENCEVILLE  LGT RAIN  79  75  87 W6        30.00R HX  83
FLORA*         CLOUDY    76  71  86 N8        30.04R
FAIRFIELD*     CLOUDY    79  75  89 W5        30.00R HX  82
HARRISBURG*    CLOUDY    83  77  80 CALM      29.99R HX  92
ROBINSON*      CLOUDY    79  76  91 W8        30.01R HX  83
CARMI*         CLOUDY    82  79  89 SW6       29.97R HX  93
$$

ABBREVIATIONS USED IN REMARKS
   TC - TEMPERATURE IN CELSIUS
  WCI - WIND CHILL INDEX
   HX - HEAT INDEX
  VSB - VISIBILITY
$$




USA.gov is the U.S. government's official web portal to all federal, state and local government web resources and services.